Temperature
18 18 18 18 18 18 18 18 18 18 18 18 18 18 18 18 18 18 18 18 18 18 17 17 17 17 17 17 17 17 16 16 16 16 16 16 16 16 16 16 16 16 15
18 18 18 18 18 18 18 18 18 18 18 18 18 18 18 18 18 18 18 18 18 18 17 17 17 17 17 17 17 17 17 16 16 16 16 16 16 16 16 16 16 16 15
18 18 18 18 18 18 18 18 18 18 18 18 18 18 18 18 18 17 17 17 17 17 17 17 17 17 17 17 17 17 17 17 16 16 16 16 16 16 16 16 16 16 15
18 18 18 18 18 18 18 18 18 18 18 18 18 18 18 18 17 17 17 17 17 17 17 17 17 17 17 17 17 17 17 17 16 16 16 16 16 16 16 16 16 15 15
18 18 18 18 18 18 18 18 18 18 18 18 18 18 18 18 18 17 17 17 17 17 17 17 17 17 17 17 17 17 17 16 16 16 16 16 16 16 16 16 16 15 15
18 18 18 18 18 18 18 18 18 18 18 18 18 18 18 18 18 18 17 17 17 17 17 17 17 17 17 17 16 16 16 16 16 16 16 16 16 16 16 15 15 15 15
18 18 18 18 18 18 18 18 18 18 18 18 18 18 18 18 18 18 18 17 17 17 17 17 17 17 17 17 16 16 16 16 16 16 16 16 16 16 16 15 15 15 15
18 18 18 18 18 18 18 18 18 18 18 18 18 18 18 18 18 18 17 17 17 17 17 17 16 16 16 16 16 16 16 16 16 16 16 16 16 16 15 15 15 15 15
18 18 18 18 18 18 18 18 18 18 18 18 18 18 18 18 18 18 17 17 17 17 17 17 16 16 16 16 16 16 16 16 16 16 16 15 15 15 15 15 15 15 15
18 18 18 18 18 17 17 17 17 18 18 18 18 18 18 18 17 17 17 17 17 17 17 16 16 16 16 16 16 16 16 16 15 15 15 15 15 15 15 15 15 14 14
18 18 18 18 18 18 18 17 17 17 17 17 17 18 18 18 18 17 17 17 17 16 16 16 16 16 16 15 15 15 15 15 15 15 15 15 15 15 15 15 14 14 14
18 18 18 18 18 17 17 17 17 17 17 17 17 17 17 17 17 17 17 16 16 16 16 16 16 15 15 15 15 15 15 15 15 15 15 15 15 15 15 14 14 14 14
18 18 18 18 18 18 17 17 17 17 17 17 17 17 17 17 17 17 17 16 16 16 16 15 15 15 15 15 15 15 15 15 15 15 14 14 14 14 14 14 14 14 14
18 18 18 18 18 17 17 17 17 17 17 17 17 17 17 17 17 17 17 16 16 16 15 15 15 15 15 15 14 14 14 14 14 14 14 14 14 14 13 13 13 13 13
18 18 18 18 17 17 17 17 17 17 17 17 17 17 17 17 16 16 16 16 16 15 15 15 14 14 14 14 14 14 14 14 14 14 14 13 13 13 13 13 13 13 13
18 18 18 18 17 17 17 17 17 17 17 17 16 16 17 16 16 16 16 16 16 16 15 15 14 14 14 14 14 13 13 13 13 13 13 13 13 13 13 13 12 12 12
18 18 18 18 17 17 17 17 17 17 16 16 16 16 16 16 16 16 16 16 16 15 15 14 14 14 14 13 13 13 13 13 13 13 13 13 13 12 12 12 12 12 11
18 18 18 17 17 17 17 17 16 16 16 16 16 16 16 16 16 16 16 15 15 15 15 14 14 13 13 13 13 13 13 13 13 12 12 12 12 12 12 12 11 11 11
18 18 18 17 17 17 16 16 16 16 16 16 16 16 16 16 15 15 15 15 15 15 14 14 14 13 13 13 13 13 12 12 12 12 12 12 12 11 11 11 11 11 11
18 18 17 17 17 17 16 16 16 16 16 16 15 15 15 15 15 15 15 15 15 14 14 14 13 13 13 13 13 12 12 12 12 12 12 12 11 11 11 11 11 10 10
18 18 17 17 17 17 17 16 16 16 15 15 15 15 15 15 15 14 14 14 14 14 14 13 13 13 13 12 12 12 12 12 12 11 11 11 11 11 11 10 10 10 10
18 17 17 17 17 17 16 16 16 15 15 15 15 15 14 14 14 14 14 14 14 14 14 13 13 13 13 12 12 12 12 12 11 11 11 11 11 11 10 10 10 10 10
18 17 17 17 17 17 16 16 16 15 15 14 14 14 14 14 14 14 14 13 14 13 13 13 13 13 12 12 12 12 12 12 12 11 11 11 11 10 10 10 10 10 10
18 17 17 17 17 16 16 16 15 15 14 14 14 14 14 13 13 13 13 13 13 13 13 13 13 12 12 12 12 12 12 11 11 11 11 11 10 10 10 10 10 10 9
17 17 16 16 16 16 16 15 15 15 14 14 14 14 13 13 13 13 13 13 13 13 12 12 12 12 12 12 12 11 11 11 11 11 11 11 10 10 10 10 10 9 9
17 16 16 16 16 16 16 15 15 14 14 14 14 13 13 13 13 13 13 12 12 12 12 12 12 12 12 12 11 11 11 11 11 10 10 10 10 10 10 10 10 9 9
Wind_Speed
1 2 1 2 3 4 4 2 2 2 2 2 2 1 2 2 7 9 10 13 13 12 11 11 10 9 9 9 8 8 8 8 8 8 7 7 7 7 6 6 7 7 7
2 1 1 0 0 2 2 3 2 2 1 2 1 1 1 2 5 8 11 11 12 12 11 10 10 9 9 9 9 9 9 9 9 9 8 8 8 8 7 7 7 7 7
2 1 1 1 1 2 2 2 2 2 2 2 1 1 1 2 3 5 9 10 10 11 11 10 10 10 9 9 9 9 10 11 10 10 9 9 9 8 9 9 8 8 8
2 0 1 1 1 1 2 1 1 1 1 1 1 1 1 2 3 4 6 9 10 10 12 12 11 10 10 10 10 10 11 11 12 11 11 10 10 10 10 10 9 8 8
2 1 1 1 1 1 1 1 2 1 1 1 1 1 2 2 3 4 4 6 8 9 10 12 12 11 10 9 9 10 11 11 12 12 12 11 10 10 10 9 9 9 9
3 1 1 2 1 1 1 1 0 1 1 2 2 1 1 2 2 3 3 3 6 8 10 10 11 10 10 8 8 9 11 12 12 12 11 11 10 10 10 10 10 10 10
2 1 0 2 1 1 1 1 1 1 2 2 1 1 1 2 2 2 2 2 3 5 7 8 9 8 7 8 7 8 9 10 11 11 11 10 10 10 11 10 10 10 10
2 2 1 1 1 1 1 1 2 1 2 2 2 1 0 0 0 1 2 2 2 3 4 5 6 6 5 5 4 5 7 7 8 9 9 10 10 10 10 10 10 9 8
2 1 2 1 1 1 1 2 1 2 2 3 3 2 1 1 0 1 1 1 2 2 2 4 5 6 5 4 3 3 5 5 6 6 6 7 8 9 9 10 9 8 7
1 1 1 1 1 1 1 1 1 2 2 3 2 2 2 2 2 1 0 1 1 2 1 1 3 5 5 6 6 5 4 4 3 3 3 4 5 6 7 7 6 6 5
2 1 2 1 1 1 1 1 1 1 1 2 2 2 2 2 2 2 1 1 1 1 1 2 3 5 6 6 6 5 5 5 4 3 2 2 3 4 5 5 5 4 4
2 2 2 1 0 0 0 1 1 1 1 2 2 2 1 2 2 2 3 3 1 1 2 3 3 4 6 6 6 6 7 6 5 5 4 4 4 4 3 3 3 2 2
2 2 2 1 0 1 0 1 1 1 2 2 2 2 2 2 2 2 2 2 1 1 2 2 2 4 5 7 7 8 8 8 7 7 7 7 7 7 6 6 6 6 6
2 2 2 1 0 1 1 0 1 2 1 1 2 2 2 2 1 1 2 2 2 1 1 2 2 4 6 7 7 8 8 9 9 9 8 9 9 9 9 9 9 8 8
2 2 2 2 1 0 1 1 0 1 1 1 1 1 1 2 1 1 1 2 2 2 1 2 2 2 6 8 8 7 7 9 9 9 9 9 9 9 9 9 9 9 8
2 1 1 1 1 1 1 1 0 1 1 1 1 1 1 2 2 1 1 1 1 2 1 1 2 3 5 7 8 8 7 8 9 9 9 8 8 9 9 9 9 8 8
1 1 1 1 1 1 1 1 0 0 1 1 1 1 1 1 1 2 1 0 1 2 3 2 2 3 4 5 6 7 8 8 7 8 8 8 8 8 8 9 8 8 7
2 1 1 1 1 2 1 1 0 1 1 1 1 1 2 1 1 1 1 1 1 2 3 4 2 3 4 5 5 5 7 7 8 9 9 9 9 9 9 8 8 8 8
2 2 2 2 2 2 1 1 1 1 1 1 1 1 1 2 1 1 1 1 1 2 3 4 4 3 3 4 4 3 5 5 7 8 8 8 9 9 9 9 8 8 8
3 2 2 2 2 2 2 1 1 1 1 1 1 1 2 2 2 1 1 1 1 2 3 4 4 3 3 3 3 3 3 2 3 6 7 8 10 9 8 8 7 7 7
3 3 2 2 2 2 1 2 0 2 1 1 1 2 3 4 5 3 2 2 2 2 2 3 4 3 2 2 2 3 3 3 2 3 4 6 8 7 7 6 6 6 7
2 2 2 2 2 2 4 5 3 2 1 1 1 2 3 4 5 5 6 5 4 2 2 2 2 3 3 2 2 3 3 3 2 3 3 4 6 5 7 8 8 9 8
3 2 2 3 4 4 5 5 5 1 2 2 1 1 1 3 3 2 3 4 5 4 3 2 2 2 2 2 2 2 2 2 2 3 3 2 3 4 6 9 12 11 10
3 3 2 3 4 3 3 4 4 0 1 2 2 2 2 3 2 2 2 3 3 3 2 2 2 1 2 2 2 2 2 2 2 1 2 2 2 3 4 9 13 13 12
3 3 3 3 3 3 2 2 2 1 1 2 2 2 2 3 3 3 2 2 2 2 3 5 5 5 4 3 1 0 1 2 2 2 2 1 1 2 2 4 10 14 14
4 4 4 4 4 3 2 1 1 1 1 2 3 3 4 3 2 2 1 2 2 1 1 3 3 3 3 4 4 2 1 1 1 2 2 2 2 2 2 2 6 11 12
Wind_Direction
116 114 114 152 178 167 161 157 144 139 128 132 153 141 98 111 125 135 146 157 161 165 169 172 175 179 180 181 186 187 186 182 182 185 188 191 195 198 205 210 212 212 209
93 104 138 165 100 129 133 146 146 144 134 112 131 134 127 113 115 138 147 161 170 174 176 179 182 184 187 191 194 193 191 190 191 194 198 201 204 205 210 218 219 221 220
90 114 155 174 159 137 113 101 116 128 158 169 164 149 125 128 129 146 153 162 173 183 184 186 189 193 196 199 201 201 202 203 204 205 207 211 214 213 218 225 228 227 227
121 126 191 156 144 169 130 149 182 143 153 156 165 209 165 128 156 166 168 171 176 184 189 195 197 200 206 210 211 211 211 210 212 211 213 218 220 222 226 227 227 228 229
152 191 169 119 172 176 158 213 140 163 184 181 198 207 199 177 170 180 181 183 180 178 178 190 198 203 209 214 218 220 218 216 213 215 218 221 223 224 225 224 226 229 231
168 202 160 150 195 202 197 166 126 219 193 207 244 218 213 202 181 186 188 181 173 179 178 178 186 199 206 211 218 223 222 218 214 215 219 222 223 222 224 226 228 231 233
155 169 315 160 207 217 203 202 199 217 221 197 234 258 246 216 190 178 179 175 172 161 156 163 174 176 185 206 219 221 218 215 214 215 219 221 223 223 224 225 228 232 235
188 186 190 234 217 197 205 228 222 230 247 212 199 201 221 269 339 185 163 167 156 121 126 143 142 145 156 168 198 208 206 209 216 216 217 219 223 224 224 224 225 225 225
192 192 167 198 255 199 202 214 234 241 243 253 222 204 202 205 119 31 146 145 142 124 125 121 132 150 158 138 138 180 184 194 204 210 217 220 221 223 224 223 221 223 228
171 156 155 167 238 234 221 248 219 258 251 266 274 262 243 173 175 190 29 48 96 99 88 101 105 119 120 118 114 108 130 147 161 186 207 211 212 216 214 210 206 206 209
147 132 132 152 215 228 229 270 295 280 270 272 281 282 275 229 199 182 195 183 96 88 99 92 87 90 91 98 106 111 119 132 139 143 153 165 168 178 186 186 195 202 202
146 126 126 132 172 238 253 267 271 267 262 266 279 287 272 260 221 196 188 181 171 137 99 94 95 100 99 96 99 106 117 118 125 124 117 119 123 122 130 146 157 155 143
129 121 123 134 190 218 205 289 259 269 268 272 263 273 278 265 252 213 192 174 164 144 112 90 91 101 104 98 96 99 102 107 111 112 108 104 105 105 102 103 99 94 92
121 129 133 146 150 305 299 286 287 282 268 273 268 275 293 301 285 215 196 164 155 149 112 110 79 90 98 98 98 103 104 107 109 109 108 105 102 98 95 96 92 88 84
138 132 138 147 155 164 297 316 339 326 340 302 304 299 288 300 309 264 186 179 171 175 179 136 116 100 106 107 108 104 100 110 116 116 113 111 107 103 99 97 93 91 86
94 113 116 132 144 149 97 71 45 343 18 4 358 26 339 317 322 313 222 194 173 166 169 150 139 144 128 119 121 119 116 114 115 120 120 119 115 109 104 100 96 93 89
135 139 143 127 105 75 66 93 145 31 52 39 12 18 346 337 343 344 359 88 141 136 148 143 123 126 125 131 137 140 133 123 115 127 131 129 124 119 114 108 102 98 96
144 134 148 130 129 102 77 50 35 67 57 45 10 360 360 6 1 4 33 72 102 129 150 149 146 151 151 152 161 164 142 131 123 133 139 140 135 128 121 115 111 106 104
131 122 123 120 110 104 102 93 101 87 78 56 21 27 30 19 10 41 67 89 130 135 132 148 155 155 160 165 161 152 129 134 137 141 141 145 143 136 130 125 122 120 117
140 135 126 119 114 108 97 104 120 114 119 102 63 55 49 43 33 25 85 81 112 121 142 149 148 155 158 164 151 159 149 155 150 155 146 146 146 142 140 138 136 134 131
138 133 137 139 131 116 56 19 163 131 122 113 94 85 85 79 68 58 80 78 94 114 143 145 149 150 154 162 181 190 170 171 168 150 152 162 159 160 162 163 164 161 154
122 124 122 98 83 74 51 41 31 69 73 82 87 95 123 108 97 83 78 80 93 126 135 134 153 162 164 171 181 193 169 173 185 170 169 176 167 169 177 178 180 178 175
127 121 116 102 89 67 46 36 28 38 87 65 62 54 79 93 99 92 100 101 81 81 103 135 159 166 155 161 165 183 189 193 196 172 164 183 170 174 174 179 179 179 181
144 131 125 115 109 90 48 27 2 12 110 101 90 69 71 91 69 65 100 103 99 72 77 117 119 107 119 125 156 192 190 160 156 157 152 185 185 177 158 166 180 183 187
147 149 147 133 124 113 60 17 2 246 140 119 109 89 88 96 58 64 107 113 110 115 95 100 107 112 119 133 133 142 180 187 203 183 160 179 182 167 158 167 188 192 196
162 158 146 141 142 137 138 37 345 223 162 144 122 111 91 102 100 73 149 146 137 135 124 129 132 149 169 184 198 206 214 228 215 184 164 172 194 175 182 183 181 194 205
Height
1550 1551 1552 1553 1554 1554 1555 1555 1556 1557 1558 1559 1559 1560 1561 1561 1562 1562 1562 1563 1563 1564 1565 1565 1566 1567 1568 1568 1569 1570 1571 1572 1573 1573 1574 1575 1576 1577 1577 1578 1579 1580 1581
1550 1552 1552 1553 1554 1555 1556 1556 1556 1557 1558 1559 1559 1560 1561 1562 1562 1562 1562 1563 1563 1564 1564 1565 1566 1566 1567 1568 1568 1569 1570 1571 1571 1572 1573 1574 1575 1575 1576 1577 1578 1578 1579
1550 1551 1552 1553 1554 1555 1555 1556 1557 1557 1558 1559 1559 1560 1560 1561 1561 1562 1562 1562 1563 1563 1564 1564 1565 1566 1566 1567 1567 1568 1568 1569 1570 1571 1571 1572 1573 1573 1574 1575 1576 1576 1577
1550 1550 1552 1552 1553 1554 1555 1556 1556 1557 1557 1558 1558 1559 1559 1560 1560 1561 1561 1561 1562 1562 1563 1564 1564 1565 1565 1565 1566 1566 1567 1567 1568 1569 1569 1570 1571 1571 1572 1573 1574 1574 1575
1549 1550 1551 1551 1552 1554 1554 1555 1556 1556 1556 1557 1557 1558 1559 1559 1559 1560 1561 1561 1561 1562 1562 1562 1563 1563 1563 1564 1564 1564 1564 1565 1566 1566 1567 1568 1568 1569 1570 1571 1571 1572 1572
1549 1549 1550 1551 1552 1552 1553 1554 1554 1555 1556 1556 1556 1557 1557 1558 1559 1559 1559 1560 1560 1561 1560 1561 1561 1561 1562 1562 1561 1561 1562 1562 1563 1564 1565 1565 1566 1566 1567 1568 1568 1569 1570
1548 1549 1549 1550 1551 1551 1552 1553 1553 1554 1554 1555 1555 1556 1556 1557 1557 1557 1558 1558 1559 1559 1559 1559 1559 1559 1559 1559 1559 1559 1559 1560 1560 1561 1562 1563 1563 1563 1564 1565 1565 1566 1566
1547 1548 1548 1549 1550 1550 1551 1552 1552 1553 1553 1554 1554 1555 1555 1557 1556 1556 1556 1557 1557 1558 1558 1558 1558 1557 1557 1557 1557 1557 1557 1557 1558 1558 1559 1560 1560 1561 1561 1562 1562 1563 1563
1547 1547 1548 1548 1549 1549 1550 1550 1551 1551 1551 1553 1553 1554 1554 1554 1555 1555 1555 1555 1556 1556 1557 1557 1556 1555 1555 1555 1554 1554 1554 1555 1555 1556 1556 1557 1557 1558 1558 1559 1559 1560 1560
1546 1547 1547 1547 1548 1548 1549 1549 1550 1550 1550 1551 1552 1552 1553 1553 1553 1554 1554 1554 1554 1555 1555 1555 1555 1554 1554 1552 1552 1552 1552 1553 1553 1554 1554 1554 1554 1555 1555 1556 1556 1557 1557
1546 1546 1546 1546 1547 1547 1547 1548 1548 1548 1549 1549 1550 1550 1551 1551 1551 1552 1552 1553 1553 1553 1553 1553 1552 1552 1552 1551 1551 1550 1551 1551 1551 1552 1552 1552 1552 1552 1552 1553 1553 1554 1554
1545 1546 1546 1545 1546 1546 1546 1546 1546 1547 1547 1547 1548 1548 1549 1549 1549 1550 1550 1550 1551 1552 1552 1551 1551 1551 1551 1550 1549 1549 1549 1549 1549 1549 1550 1550 1549 1550 1550 1550 1550 1551 1551
1545 1545 1545 1545 1545 1545 1545 1545 1545 1545 1545 1546 1546 1546 1547 1547 1547 1547 1548 1548 1549 1550 1550 1550 1550 1550 1550 1549 1548 1548 1547 1547 1547 1547 1548 1548 1547 1548 1548 1548 1548 1548 1548
1544 1544 1544 1544 1544 1544 1544 1544 1543 1544 1544 1544 1544 1544 1544 1545 1545 1545 1546 1546 1547 1548 1549 1549 1549 1549 1548 1548 1547 1546 1546 1546 1545 1545 1546 1546 1546 1546 1547 1547 1546 1547 1547
1543 1543 1543 1542 1542 1542 1542 1542 1542 1542 1542 1542 1542 1542 1542 1543 1543 1543 1544 1544 1545 1545 1547 1547 1547 1548 1547 1546 1546 1545 1545 1545 1545 1544 1545 1545 1545 1545 1545 1545 1545 1545 1546
1542 1542 1541 1541 1541 1541 1541 1541 1541 1540 1541 1540 1540 1540 1540 1541 1541 1542 1542 1542 1542 1543 1544 1545 1545 1546 1546 1546 1545 1545 1545 1544 1544 1544 1544 1544 1544 1544 1544 1544 1544 1544 1544
1540 1540 1540 1540 1540 1540 1540 1539 1539 1539 1539 1539 1539 1539 1539 1539 1539 1539 1540 1540 1540 1541 1541 1543 1544 1544 1545 1545 1544 1544 1544 1544 1543 1544 1544 1544 1544 1544 1544 1544 1544 1544 1544
1539 1539 1538 1538 1538 1538 1538 1538 1538 1538 1538 1538 1538 1537 1537 1537 1538 1538 1538 1538 1538 1539 1540 1540 1541 1542 1543 1544 1544 1544 1544 1544 1544 1544 1544 1544 1544 1544 1543 1543 1543 1543 1543
1538 1537 1537 1537 1537 1537 1537 1537 1537 1537 1536 1536 1536 1536 1536 1536 1536 1536 1536 1536 1537 1537 1538 1538 1539 1541 1542 1542 1543 1543 1544 1543 1543 1543 1543 1544 1543 1543 1543 1543 1543 1542 1542
1537 1537 1537 1536 1536 1536 1536 1536 1536 1535 1535 1535 1535 1535 1535 1535 1535 1535 1535 1535 1536 1536 1537 1537 1538 1539 1540 1541 1541 1541 1542 1542 1542 1543 1543 1543 1543 1543 1542 1542 1542 1542 1542
1536 1536 1536 1536 1535 1535 1535 1535 1535 1534 1534 1534 1534 1534 1534 1534 1534 1534 1534 1534 1534 1535 1535 1536 1536 1537 1537 1538 1539 1540 1541 1541 1542 1542 1542 1542 1542 1542 1542 1542 1542 1541 1541
1535 1535 1535 1535 1534 1534 1534 1533 1533 1533 1533 1533 1533 1533 1533 1532 1532 1533 1533 1533 1534 1534 1534 1534 1535 1535 1536 1536 1537 1538 1539 1540 1540 1541 1541 1541 1541 1541 1541 1541 1540 1540 1540
1533 1533 1533 1533 1533 1532 1532 1532 1532 1531 1531 1531 1531 1531 1532 1531 1531 1531 1531 1532 1532 1532 1533 1533 1533 1534 1534 1535 1535 1536 1537 1537 1538 1538 1539 1539 1539 1539 1539 1539 1539 1539 1539
1531 1531 1532 1532 1531 1531 1531 1531 1531 1530 1530 1530 1530 1530 1530 1529 1529 1529 1530 1530 1530 1531 1531 1531 1532 1533 1533 1533 1534 1535 1535 1536 1536 1537 1537 1538 1538 1538 1538 1538 1538 1538 1538
1529 1529 1530 1530 1529 1529 1529 1529 1529 1529 1529 1528 1528 1528 1528 1528 1527 1527 1528 1528 1528 1529 1530 1531 1531 1531 1532 1532 1533 1533 1533 1534 1534 1535 1535 1535 1536 1536 1537 1536 1536 1536 1536
1527 1527 1527 1528 1527 1527 1527 1528 1527 1527 1527 1527 1526 1527 1527 1526 1525 1525 1525 1526 1526 1528 1528 1529 1529 1530 1530 1531 1531 1532 1532 1532 1532 1533 1533 1533 1534 1534 1534 1534 1534 1534 1534